[[{"header":{"parameterUnit":"m.s-1","parameterCategory":2,"la1":30.2991,"la2":30.254,"lo1":-89.0895,"lo2":-89.0444,"dy":0.0017,"dx":0.0017,"nx":28,"ny":28,"refTime":"2024-07-16T09:00:00:Z","depth":"0","parameterNumber":2,"parameterNumberName":"U-component_of_CURRENTS"},"data":[0,0,0,0,0,0,0,0,0,0,0,0,0,0,0,0,0,0,0,0,0,0,0,0,0,0,0,0,0,0,0,0,0,0,0,0,0,0,0,0,0,0,0,0,0,0,0,0,0,0,0,0,0,0,0,0,0,0,-0.0842,-0.0843,0,-0.0918,-0.0919,-0.0919,-0.0903,-0.0901,-0.09,-0.0899,-0.0846,-0.0846,-0.0846,0,0,0,0,0,0,0,0,0,0,0,0,0,-0.0838,-0.0837,-0.0842,-0.0843,-0.0844,-0.0918,-0.0919,-0.092,-0.0903,-0.0901,-0.09,-0.0898,-0.0846,-0.0846,-0.0845,0,0,0,0,0,0,0,0,0,0,0,0,0,-0.0868,-0.0837,-0.0842,-0.0845,-0.0847,-0.0918,-0.0919,-0.092,-0.0903,-0.0901,-0.0899,-0.0897,-0.0846,-0.0846,-0.0845,-0.0883,0,0,-0.0845,-0.0844,0,0,0,0,0,0,0,0,-0.0866,-0.0868,-0.0844,-0.0845,-0.0847,-0.09,-0.0898,-0.0902,-0.0904,-0.088,-0.0899,-0.0896,-0.0854,-0.0853,-0.0872,-0.088,-0.0878,-0.0845,-0.0844,-0.0844,-0.0844,0,0,0,0,0,0,0,-0.0864,-0.0865,-0.087,-0.0845,-0.0847,-0.0897,-0.0898,-0.09,-0.0874,-0.0882,-0.0881,-0.0893,-0.0854,-0.0872,-0.087,-0.0877,-0.0845,-0.0844,-0.0844,-0.0844,-0.0888,-0.0889,0,0,0,0,0,0,-0.0851,-0.0863,-0.0868,-0.0873,-0.0853,-0.0898,-0.0899,-0.0884,-0.0877,-0.0875,-0.0894,-0.0892,-0.0874,-0.087,-0.0868,-0.0864,-0.0844,-0.0844,-0.0844,-0.0887,-0.0888,-0.089,0,0,0,0,0,0,-0.085,-0.085,-0.0865,-0.0873,-0.0878,-0.0899,-0.0884,-0.0886,-0.0898,-0.0888,-0.0883,-0.0902,-0.0872,-0.0868,-0.0858,-0.0863,-0.0844,-0.0844,-0.0885,-0.0887,-0.0889,-0.0885,0,0,0,0,0,0,-0.0849,-0.0848,-0.0832,-0.087,-0.0877,-0.0902,-0.0886,-0.0889,-0.0909,-0.0906,-0.0893,-0.0887,-0.087,-0.0859,-0.0858,-0.0862,-0.0843,-0.0883,-0.0886,-0.0889,-0.0883,-0.0886,-0.0889,0,0,0,0,0,-0.0849,-0.0832,-0.083,-0.0831,-0.0853,-0.0903,-0.0911,-0.092,-0.0911,-0.0922,-0.0905,-0.0887,-0.0874,-0.0859,-0.0858,-0.0862,-0.0882,-0.0885,-0.0888,-0.0882,-0.0886,-0.0889,0,0,0,0,0,0,-0.0825,-0.0831,-0.0828,-0.0813,-0.0854,-0.09,-0.0912,-0.0926,-0.0928,-0.0914,-0.0897,-0.0891,-0.0891,-0.0885,-0.0869,-0.0887,-0.0879,-0.0882,-0.0875,-0.0878,-0.0881,-0.0883,-0.0843,0,0,0,0,0,-0.0813,-0.0784,-0.083,-0.0812,-0.0841,-0.088,-0.09,-0.0911,-0.0924,-0.0924,-0.0916,-0.0909,-0.091,-0.0896,-0.0903,-0.0904,-0.0907,-0.0912,-0.0915,-0.0917,-0.0921,-0.0958,-0.0964,-0.09,-0.09,-0.09,0,0,-0.0805,-0.0794,-0.0785,-0.0804,-0.0836,-0.0869,-0.0886,-0.0918,-0.0927,-0.0916,-0.0915,-0.0923,-0.0918,-0.092,-0.092,-0.0906,-0.093,-0.0921,-0.0922,-0.0926,-0.0961,-0.0967,-0.0973,-0.0902,-0.0901,-0.0901,0,0,-0.0781,-0.0768,-0.0757,-0.0786,-0.0826,-0.0855,-0.0866,-0.092,-0.0928,-0.094,-0.0937,-0.0951,-0.0942,-0.0948,-0.0946,-0.0976,-0.0955,-0.0973,-0.0972,-0.1007,-0.1012,-0.1017,-0.0993,-0.0996,-0.0962,-0.0962,-0.0962,0,-0.077,-0.0747,-0.0769,-0.0778,-0.0795,-0.0848,-0.0869,-0.0897,-0.0931,-0.0941,-0.0931,-0.0963,-0.0961,-0.0973,-0.0977,-0.0981,-0.0974,-0.095,-0.1009,-0.1014,-0.1019,-0.0994,-0.0997,-0.0962,-0.0962,-0.0962,-0.0962,0,-0.0764,-0.0741,-0.0746,-0.0754,-0.0786,-0.0807,-0.0862,-0.0886,-0.0901,-0.093,-0.0959,-0.0974,-0.099,-0.0998,-0.0986,-0.1022,-0.0995,-0.1016,-0.0993,-0.1024,-0.0996,-0.0999,-0.0962,-0.0962,-0.0962,-0.0962,0,0,-0.0743,-0.0737,-0.0735,-0.0728,-0.0769,-0.0796,-0.0821,-0.087,-0.0887,-0.0925,-0.0945,-0.0975,-0.1002,-0.1005,-0.1014,-0.1039,-0.1056,-0.103,-0.1032,-0.0993,-0.1084,-0.0885,-0.0869,-0.108,-0.1082,-0.1083,-0.1037,0,-0.0731,-0.0715,-0.072,-0.0718,-0.0733,-0.0771,-0.0787,-0.0832,-0.0873,-0.0908,-0.0953,-0.0978,-0.0998,-0.1002,-0.1038,-0.1061,-0.107,-0.1064,-0.1072,-0.1071,-0.0881,-0.0869,-0.072,-0.0651,-0.104,-0.104,-0.104,0,-0.0732,-0.0711,-0.0703,-0.0686,-0.0701,-0.0708,-0.075,-0.0768,-0.0837,-0.0868,-0.0921,-0.0961,-0.1006,-0.1022,-0.1078,-0.1067,-0.1074,-0.1089,-0.1089,-0.0909,-0.0879,-0.0692,-0.0642,-0.0673,-0.1045,-0.1045,-0.1045,0,-0.0714,-0.0696,-0.0673,-0.0674,-0.0685,-0.0684,-0.0693,-0.0757,-0.0773,-0.0846,-0.0868,-0.0945,-0.0957,-0.102,-0.1049,-0.1065,-0.1091,-0.1122,-0.0947,-0.0931,-0.0809,-0.0778,-0.0779,-0.1161,-0.1161,-0.1161,-0.1162,0,-0.0689,-0.0672,-0.0658,-0.0648,-0.0632,-0.0652,-0.0653,-0.0688,-0.0731,-0.0745,-0.0839,-0.0853,-0.0959,-0.0988,-0.1036,-0.097,-0.1081,-0.0929,-0.0908,-0.0796,-0.0766,-0.0791,-0.0934,-0.116,-0.116,-0.116,-0.1161,0,-0.0671,-0.0659,-0.0632,-0.0621,-0.0621,-0.0607,-0.0606,-0.0611,-0.066,-0.068,-0.0695,-0.0772,-0.0794,-0.0873,-0.094,-0.0897,-0.0882,-0.0854,-0.0672,-0.0628,-0.0441,-0.0591,-0.0622,-0.0592,-0.0633,-0.0628,-0.0624,0,-0.0653,-0.0637,-0.061,-0.0587,-0.0574,-0.0557,-0.0549,-0.0578,-0.0584,-0.0618,-0.0618,-0.0641,-0.0636,-0.0624,-0.0597,-0.0589,-0.0723,-0.0393,-0.0397,-0.038,-0.0538,-0.0649,-0.0633,-0.0236,-0.0229,-0.0223,-0.0219,0,-0.0619,-0.0609,-0.0582,-0.0542,-0.0515,-0.0486,-0.047,-0.0465,-0.0491,-0.0497,-0.0475,-0.0462,-0.041,-0.0309,-0.025,-0.0229,-0.0384,-0.0261,-0.0336,-0.0283,-0.0326,-0.03,-0.0296,-0.0166,-0.0172,-0.0175,-0.0178,-0.018,-0.0583,-0.0555,-0.0518,-0.0471,-0.0448,-0.0405,-0.0363,-0.0353,-0.0327,-0.0304,-0.0317,-0.0244,-0.0107,0.0011,0.0039,0.0203,-0.0023,0.0227,0.003,-0.0089,-0.0023,0.0158,0.0371,0.0369,0.0368,0.0366,0.0365,0,-0.0525,-0.0491,-0.0448,-0.0386,-0.0342,-0.0351,-0.0305,-0.0251,-0.0191,-0.0157,-0.0108,0.0068,0.0246,0.0328,0.0517,0.0498,0.0428,0.0411,0.0222,0.0215,0.0331,0.0396,0.0735,0.0735,0.0735,0.0735,0.0735,0.0735,-0.0487,-0.0424,-0.0396,-0.0295,-0.0262,-0.0187,-0.0147,-0.008,-0.0029,0.0099,0.019,0.0239,0.0347,0.0387,0.0497,0.0505,0.0317,0.0284,0.0135,0.0142,0.0108,0.0075,0.0111,0.0385,0.0384,0.0173,0.0169,0.0167]},{"header":{"parameterUnit":"m.s-1","parameterCategory":2,"la1":30.2991,"la2":30.254,"lo1":-89.0895,"lo2":-89.0444,"dy":0.0017,"dx":0.0017,"nx":28,"ny":28,"refTime":"2024-07-16T09:00:00:Z","depth":"0","parameterNumber":3,"parameterNumberName":"V-component_of_CURRENTS"},"data":[0,0,0,0,0,0,0,0,0,0,0,0,0,0,0,0,0,0,0,0,0,0,0,0,0,0,0,0,0,0,0,0,0,0,0,0,0,0,0,0,0,0,0,0,0,0,0,0,0,0,0,0,0,0,0,0,0,0,-0.0604,-0.0605,0,-0.0652,-0.0652,-0.0652,-0.0601,-0.0599,-0.0598,-0.0596,-0.0555,-0.0556,-0.0556,0,0,0,0,0,0,0,0,0,0,0,0,0,-0.0487,-0.0489,-0.0604,-0.0605,-0.0606,-0.0652,-0.0652,-0.0652,-0.0601,-0.0599,-0.0597,-0.0596,-0.0555,-0.0556,-0.0556,0,0,0,0,0,0,0,0,0,0,0,0,0,-0.0532,-0.049,-0.0604,-0.059,-0.059,-0.0652,-0.0652,-0.0652,-0.0601,-0.0599,-0.0597,-0.0595,-0.0555,-0.0556,-0.0556,-0.0602,0,0,-0.0557,-0.0557,0,0,0,0,0,0,0,0,-0.0529,-0.0535,-0.0591,-0.0591,-0.0591,-0.0623,-0.0597,-0.0633,-0.0602,-0.0591,-0.0596,-0.0594,-0.0575,-0.0574,-0.0581,-0.06,-0.0599,-0.0557,-0.0558,-0.0558,-0.0558,0,0,0,0,0,0,0,-0.0526,-0.0533,-0.0617,-0.0593,-0.0593,-0.0589,-0.0592,-0.0603,-0.0588,-0.0592,-0.0589,-0.0605,-0.0573,-0.0581,-0.0579,-0.0598,-0.0557,-0.0558,-0.0558,-0.0558,-0.0608,-0.0609,0,0,0,0,0,0,-0.0534,-0.053,-0.0616,-0.0619,-0.0561,-0.0594,-0.0597,-0.061,-0.059,-0.0588,-0.0607,-0.0602,-0.0581,-0.0579,-0.0578,-0.0605,-0.0558,-0.0558,-0.0558,-0.0607,-0.0608,-0.0609,0,0,0,0,0,0,-0.0531,-0.0541,-0.0614,-0.058,-0.059,-0.0598,-0.0614,-0.0613,-0.0612,-0.0604,-0.0597,-0.0606,-0.0579,-0.0577,-0.0594,-0.0603,-0.0558,-0.0559,-0.0605,-0.0607,-0.0608,-0.0675,0,0,0,0,0,0,-0.0527,-0.0539,-0.0552,-0.0581,-0.0592,-0.0647,-0.0617,-0.0615,-0.0628,-0.0622,-0.0602,-0.0597,-0.0577,-0.0594,-0.0595,-0.0603,-0.0559,-0.0604,-0.0606,-0.0608,-0.0672,-0.0679,-0.0685,0,0,0,0,0,-0.0523,-0.056,-0.0553,-0.0563,-0.061,-0.0649,-0.0654,-0.0648,-0.063,-0.0637,-0.0631,-0.0597,-0.0606,-0.0596,-0.0597,-0.0605,-0.0603,-0.0605,-0.0608,-0.0669,-0.0677,-0.0685,0,0,0,0,0,0,-0.0519,-0.0559,-0.0552,-0.0598,-0.0617,-0.0642,-0.0665,-0.0655,-0.0658,-0.0649,-0.0626,-0.0622,-0.0634,-0.062,-0.0609,-0.0624,-0.0593,-0.0596,-0.0639,-0.0647,-0.0654,-0.0652,-0.0559,0,0,0,0,0,-0.0526,-0.0556,-0.0587,-0.062,-0.0639,-0.0649,-0.0666,-0.0658,-0.0669,-0.0667,-0.0655,-0.0646,-0.0649,-0.0648,-0.0645,-0.0669,-0.0612,-0.0669,-0.0676,-0.0682,-0.0681,-0.0611,-0.061,-0.0617,-0.0617,-0.0617,0,0,-0.0533,-0.0561,-0.0576,-0.062,-0.064,-0.0673,-0.0652,-0.0682,-0.0697,-0.0665,-0.0684,-0.0672,-0.0661,-0.0679,-0.0682,-0.0666,-0.065,-0.0685,-0.069,-0.0686,-0.0613,-0.0612,-0.0611,-0.0619,-0.0618,-0.0618,0,0,-0.0571,-0.059,-0.0628,-0.0648,-0.0682,-0.0694,-0.0702,-0.0724,-0.0723,-0.075,-0.0724,-0.0725,-0.0733,-0.0725,-0.0724,-0.0772,-0.0688,-0.076,-0.0795,-0.0728,-0.0726,-0.0723,-0.0645,-0.0635,-0.0764,-0.0764,-0.0764,0,-0.0572,-0.0622,-0.0644,-0.0682,-0.0702,-0.0705,-0.0738,-0.0754,-0.0769,-0.0776,-0.0759,-0.0766,-0.0756,-0.0776,-0.0788,-0.0786,-0.0722,-0.0767,-0.0734,-0.0731,-0.0727,-0.0647,-0.0635,-0.0768,-0.0767,-0.0767,-0.0767,0,-0.0637,-0.0667,-0.0698,-0.074,-0.0763,-0.0794,-0.0818,-0.083,-0.0829,-0.0836,-0.0849,-0.0841,-0.0836,-0.0837,-0.0831,-0.0811,-0.0764,-0.0748,-0.071,-0.073,-0.0645,-0.0631,-0.0773,-0.0771,-0.077,-0.077,0,0,-0.0647,-0.0726,-0.073,-0.0748,-0.0789,-0.0814,-0.0851,-0.0884,-0.0896,-0.0907,-0.0917,-0.0934,-0.0912,-0.0909,-0.089,-0.0844,-0.077,-0.0787,-0.0782,-0.0703,-0.0594,-0.0549,-0.0529,-0.0733,-0.0732,-0.073,-0.0542,0,-0.0679,-0.0754,-0.0785,-0.0833,-0.0866,-0.0877,-0.0905,-0.0927,-0.094,-0.0951,-0.095,-0.0952,-0.0946,-0.093,-0.0891,-0.081,-0.0737,-0.0821,-0.0592,-0.0585,-0.0537,-0.0514,-0.0472,-0.0299,-0.0528,-0.0526,-0.0524,0,-0.0719,-0.0761,-0.0824,-0.0862,-0.0879,-0.0906,-0.0933,-0.0958,-0.0982,-0.0985,-0.0994,-0.0981,-0.096,-0.0924,-0.0792,-0.0838,-0.0714,-0.0638,-0.0628,-0.0552,-0.0515,-0.0317,-0.0265,-0.0093,-0.0502,-0.0504,-0.0505,0,-0.0706,-0.0776,-0.0825,-0.0842,-0.0897,-0.0917,-0.0938,-0.0966,-0.0979,-0.0998,-0.0991,-0.0979,-0.0948,-0.0831,-0.0727,-0.0726,-0.0551,-0.0524,-0.0358,-0.0353,-0.0257,-0.0247,-0.0006,-0.0373,-0.0373,-0.0374,-0.0374,0,-0.0721,-0.0749,-0.0822,-0.0848,-0.0879,-0.0913,-0.0937,-0.096,-0.0977,-0.0985,-0.0999,-0.0988,-0.0913,-0.0832,-0.0712,-0.0518,-0.0533,-0.0348,-0.0298,-0.028,-0.0275,-0.0074,-0.0048,-0.0367,-0.0368,-0.0369,-0.0371,0,-0.0691,-0.0749,-0.0794,-0.0861,-0.088,-0.0895,-0.0932,-0.0941,-0.0961,-0.0964,-0.0963,-0.0968,-0.0888,-0.081,-0.0624,-0.0482,-0.021,-0.0225,-0.0217,-0.017,0.0158,0.0175,0.0395,0.0498,0.0023,0.0025,0.0027,0,-0.0684,-0.0712,-0.0791,-0.0815,-0.0848,-0.0876,-0.0888,-0.0925,-0.0936,-0.0946,-0.0943,-0.0901,-0.0878,-0.0642,-0.0454,-0.0236,-0.0127,0.0032,0.0041,0.0199,0.0257,0.0236,0.0305,0.0154,0.0157,0.0159,0.0161,0,-0.0651,-0.0686,-0.0727,-0.0783,-0.0813,-0.0831,-0.0861,-0.0869,-0.0898,-0.0898,-0.0889,-0.0874,-0.0726,-0.0551,-0.03,-0.0116,0.0135,0.0091,0.0264,0.0388,0.0374,0.0488,0.0007,0.0182,0.0179,0.0178,0.0177,0.0176,-0.0611,-0.0628,-0.0695,-0.0739,-0.0767,-0.0781,-0.0784,-0.0802,-0.0805,-0.0788,-0.0811,-0.0746,-0.0563,-0.0259,-0.0049,0.0401,0.03,0.0581,0.0597,0.0569,0.0644,0.0204,0.0416,0.0415,0.0414,0.0414,0.0413,0,-0.0566,-0.0603,-0.0646,-0.0699,-0.0707,-0.074,-0.0758,-0.0742,-0.0723,-0.0689,-0.0664,-0.0462,-0.0184,0.0094,0.0601,0.089,0.095,0.102,0.1024,0.108,0.0732,0.0716,0.099,0.099,0.0989,0.0989,0.0989,0.0989,-0.0549,-0.0583,-0.0621,-0.0635,-0.0658,-0.0642,-0.0642,-0.0622,-0.0592,-0.0462,-0.0345,-0.0276,0.0094,0.0675,0.1239,0.1342,0.1514,0.1438,0.1538,0.1317,0.1278,0.124,0.1238,0.1617,0.1617,0.1894,0.1897,0.1899]}],[{"header":{"parameterUnit":"m.s-1","parameterCategory":2,"la1":30.2991,"la2":30.254,"lo1":-89.0895,"lo2":-89.0444,"dy":0.0017,"dx":0.0017,"nx":28,"ny":28,"refTime":"2024-07-16T09:00:00:Z","depth":"2","parameterNumber":2,"parameterNumberName":"U-component_of_CURRENTS"},"data":[0,0,0,0,0,0,0,0,0,0,0,0,0,0,0,0,0,0,0,0,0,0,0,0,0,0,0,0,0,0,0,0,0,0,0,0,0,0,0,0,0,0,0,0,0,0,0,0,0,0,0,0,0,0,0,0,0,0,-0.2949,-0.2948,0,-0.2844,-0.2842,-0.2841,-0.2803,-0.2803,-0.2803,-0.2803,-0.277,-0.2768,-0.2767,0,0,0,0,0,0,0,0,0,0,0,0,0,-0.304,-0.3039,-0.2949,-0.2948,-0.2946,-0.2844,-0.2842,-0.2841,-0.2802,-0.2803,-0.2803,-0.2804,-0.277,-0.2769,-0.2767,0,0,0,0,0,0,0,0,0,0,0,0,0,-0.2975,-0.3039,-0.2949,-0.2915,-0.2911,-0.2844,-0.2842,-0.2841,-0.2802,-0.2803,-0.2803,-0.2804,-0.277,-0.2769,-0.2767,-0.2746,0,0,-0.2761,-0.2761,0,0,0,0,0,0,0,0,-0.2979,-0.2972,-0.2921,-0.2917,-0.2912,-0.2837,-0.2862,-0.2812,-0.2802,-0.2844,-0.2804,-0.2804,-0.2798,-0.2794,-0.2772,-0.2744,-0.2743,-0.2761,-0.276,-0.2759,-0.2759,0,0,0,0,0,0,0,-0.2983,-0.2975,-0.2907,-0.292,-0.2914,-0.2878,-0.287,-0.2852,-0.2821,-0.284,-0.2837,-0.2825,-0.2796,-0.2774,-0.2771,-0.2742,-0.2761,-0.276,-0.2758,-0.2758,-0.2685,-0.2684,0,0,0,0,0,0,-0.2999,-0.298,-0.2911,-0.2904,-0.2947,-0.2876,-0.2867,-0.286,-0.2819,-0.2813,-0.2824,-0.2823,-0.2777,-0.2774,-0.277,-0.2757,-0.2759,-0.2758,-0.2757,-0.2686,-0.2685,-0.2684,0,0,0,0,0,0,-0.3002,-0.2994,-0.2915,-0.2939,-0.2927,-0.2875,-0.2867,-0.2858,-0.284,-0.2807,-0.2802,-0.2816,-0.2777,-0.2773,-0.2745,-0.2755,-0.2757,-0.2755,-0.2687,-0.2685,-0.2684,-0.2722,0,0,0,0,0,0,-0.3005,-0.2996,-0.2987,-0.2941,-0.2926,-0.2871,-0.2866,-0.2856,-0.2831,-0.2829,-0.2798,-0.2794,-0.2777,-0.2748,-0.2743,-0.2753,-0.2754,-0.2688,-0.2686,-0.2685,-0.2722,-0.2722,-0.2722,0,0,0,0,0,-0.3009,-0.2987,-0.2987,-0.2978,-0.2919,-0.2871,-0.2859,-0.2824,-0.283,-0.2812,-0.2792,-0.2796,-0.2735,-0.2745,-0.274,-0.275,-0.2688,-0.2687,-0.2685,-0.2721,-0.2722,-0.2722,0,0,0,0,0,0,-0.301,-0.298,-0.2979,-0.2948,-0.2915,-0.2864,-0.2835,-0.2828,-0.2796,-0.2796,-0.2781,-0.2775,-0.2754,-0.2739,-0.2751,-0.272,-0.2714,-0.2711,-0.2743,-0.2744,-0.2744,-0.2753,-0.2752,0,0,0,0,0,-0.3011,-0.2992,-0.2961,-0.2932,-0.2919,-0.2884,-0.286,-0.2842,-0.2811,-0.2797,-0.278,-0.2759,-0.2739,-0.2733,-0.2704,-0.269,-0.2645,-0.2691,-0.2692,-0.2692,-0.2693,-0.2628,-0.2623,-0.2677,-0.2677,-0.2677,0,0,-0.3002,-0.2982,-0.2969,-0.2932,-0.2902,-0.2876,-0.287,-0.2831,-0.2817,-0.28,-0.2773,-0.2756,-0.2732,-0.271,-0.2701,-0.2703,-0.2646,-0.269,-0.2691,-0.2692,-0.2626,-0.2621,-0.2616,-0.2676,-0.2676,-0.2677,0,0,-0.2969,-0.296,-0.2935,-0.2913,-0.2876,-0.2859,-0.2856,-0.2817,-0.2808,-0.2779,-0.2768,-0.2753,-0.272,-0.2706,-0.2696,-0.268,-0.2646,-0.2679,-0.2699,-0.2636,-0.2631,-0.2626,-0.254,-0.2527,-0.2687,-0.2687,-0.2687,0,-0.2955,-0.2927,-0.2916,-0.2889,-0.2869,-0.2859,-0.2834,-0.282,-0.2779,-0.2778,-0.2773,-0.2729,-0.2715,-0.2701,-0.27,-0.2684,-0.2633,-0.2706,-0.2637,-0.2632,-0.2627,-0.2539,-0.2525,-0.2689,-0.2688,-0.2688,-0.2688,0,-0.2912,-0.2889,-0.2868,-0.2844,-0.2826,-0.2794,-0.2788,-0.2778,-0.2777,-0.277,-0.2752,-0.2725,-0.2701,-0.2704,-0.2702,-0.2672,-0.2641,-0.2642,-0.2642,-0.2624,-0.2532,-0.2516,-0.2691,-0.269,-0.269,-0.2689,0,0,-0.2864,-0.2845,-0.2834,-0.2821,-0.2801,-0.2777,-0.2774,-0.2762,-0.276,-0.2745,-0.2733,-0.272,-0.2718,-0.2706,-0.2703,-0.2672,-0.2591,-0.2653,-0.2649,-0.2576,-0.2428,-0.2317,-0.2288,-0.2584,-0.2582,-0.258,-0.2371,0,-0.2824,-0.2781,-0.2786,-0.2745,-0.272,-0.2733,-0.2728,-0.2727,-0.2729,-0.2716,-0.2719,-0.2698,-0.2716,-0.2705,-0.2678,-0.2616,-0.2556,-0.2646,-0.2448,-0.2442,-0.2353,-0.2269,-0.2163,-0.196,-0.2356,-0.2353,-0.2351,0,-0.2763,-0.2747,-0.271,-0.27,-0.2692,-0.2676,-0.2674,-0.2671,-0.268,-0.2683,-0.2684,-0.2681,-0.2652,-0.2658,-0.2537,-0.2594,-0.2509,-0.2459,-0.2449,-0.2324,-0.2301,-0.2045,-0.1916,-0.2325,-0.2327,-0.2329,-0.2331,0,-0.271,-0.2684,-0.2658,-0.265,-0.2645,-0.2638,-0.264,-0.2653,-0.2644,-0.2658,-0.2636,-0.2627,-0.2578,-0.2511,-0.2424,-0.2469,-0.2264,-0.2301,-0.211,-0.21,-0.1958,-0.1939,-0.2178,-0.2178,-0.2179,-0.2179,-0.218,0,-0.2649,-0.2615,-0.2629,-0.2606,-0.2571,-0.2596,-0.2568,-0.2581,-0.2586,-0.2554,-0.2604,-0.2546,-0.2537,-0.2437,-0.2379,-0.2175,-0.2208,-0.2078,-0.203,-0.1964,-0.1949,-0.2241,-0.2251,-0.2172,-0.2173,-0.2175,-0.2176,0,-0.2559,-0.2579,-0.253,-0.2534,-0.2533,-0.2501,-0.2497,-0.2488,-0.2505,-0.2457,-0.2454,-0.244,-0.2296,-0.225,-0.2109,-0.2064,-0.1925,-0.184,-0.1755,-0.17,-0.1816,-0.1831,-0.16,-0.1594,-0.1589,-0.1585,-0.1582,0,-0.25,-0.2472,-0.2456,-0.2436,-0.2426,-0.2404,-0.2394,-0.2428,-0.2413,-0.2368,-0.2325,-0.2206,-0.2075,-0.1836,-0.1724,-0.1549,-0.169,-0.1403,-0.1473,-0.1775,-0.1752,-0.1775,-0.1795,-0.1288,-0.1282,-0.1278,-0.1274,0,-0.2374,-0.2374,-0.2355,-0.2309,-0.2289,-0.2276,-0.2262,-0.224,-0.2268,-0.2197,-0.2078,-0.1969,-0.1724,-0.1502,-0.1315,-0.1223,-0.1439,-0.13,-0.1595,-0.1465,-0.1468,-0.1451,-0.1483,-0.1233,-0.1237,-0.124,-0.1242,-0.1244,-0.2267,-0.2231,-0.2211,-0.2162,-0.2149,-0.2131,-0.2088,-0.2087,-0.2012,-0.1884,-0.1836,-0.1611,-0.1518,-0.113,-0.0985,-0.0902,-0.1017,-0.1052,-0.1072,-0.1095,-0.1111,-0.1106,-0.0804,-0.0806,-0.0807,-0.0808,-0.0809,0,-0.2113,-0.2099,-0.2064,-0.2014,-0.1972,-0.1998,-0.198,-0.1923,-0.1802,-0.1653,-0.1485,-0.1186,-0.098,-0.0885,-0.0673,-0.0603,-0.0635,-0.06,-0.0702,-0.0742,-0.0778,-0.0784,-0.0386,-0.0385,-0.0383,-0.0382,0,0,-0.2027,-0.1962,-0.1963,-0.1847,-0.1817,-0.1734,-0.1711,-0.163,-0.1513,-0.1236,-0.1061,-0.0984,-0.0913,-0.0694,-0.0591,-0.0476,-0.0607,-0.0421,-0.0766,-0.0931,-0.0966,-0.104,-0.1093,0,0,0,0,0]},{"header":{"parameterUnit":"m.s-1","parameterCategory":2,"la1":30.2991,"la2":30.254,"lo1":-89.0895,"lo2":-89.0444,"dy":0.0017,"dx":0.0017,"nx":28,"ny":28,"refTime":"2024-07-16T09:00:00:Z","depth":"2","parameterNumber":3,"parameterNumberName":"V-component_of_CURRENTS"},"data":[0,0,0,0,0,0,0,0,0,0,0,0,0,0,0,0,0,0,0,0,0,0,0,0,0,0,0,0,0,0,0,0,0,0,0,0,0,0,0,0,0,0,0,0,0,0,0,0,0,0,0,0,0,0,0,0,0,0,0.0924,0.0926,0,0.1134,0.1136,0.1138,0.1211,0.121,0.121,0.1209,0.1326,0.1329,0.1333,0,0,0,0,0,0,0,0,0,0,0,0,0,0.0651,0.0655,0.0923,0.0926,0.0929,0.1133,0.1136,0.1139,0.1211,0.121,0.121,0.1209,0.1325,0.1329,0.1333,0,0,0,0,0,0,0,0,0,0,0,0,0,0.0804,0.0656,0.0923,0.0991,0.0999,0.1133,0.1136,0.1139,0.1211,0.121,0.1209,0.1209,0.1323,0.1329,0.1334,0.1387,0,0,0.1351,0.1353,0,0,0,0,0,0,0,0,0.0795,0.0813,0.0978,0.0987,0.0996,0.1147,0.1083,0.1218,0.1212,0.1129,0.1209,0.1208,0.1259,0.127,0.131,0.1393,0.1398,0.1351,0.1355,0.1357,0.1359,0,0,0,0,0,0,0,0.0784,0.0805,0.1005,0.0981,0.0992,0.1034,0.1054,0.1109,0.1194,0.1136,0.1142,0.1169,0.1263,0.1305,0.1313,0.14,0.1351,0.1356,0.136,0.1362,0.1491,0.1491,0,0,0,0,0,0,0.076,0.0795,0.0998,0.1011,0.0893,0.1039,0.1062,0.1098,0.1195,0.1211,0.117,0.1172,0.1296,0.1307,0.1317,0.1355,0.1357,0.1362,0.1366,0.149,0.1491,0.1491,0,0,0,0,0,0,0.0754,0.0777,0.099,0.0908,0.0939,0.1045,0.1085,0.1103,0.1127,0.1222,0.1235,0.1173,0.1296,0.131,0.1357,0.136,0.1365,0.137,0.149,0.149,0.1491,0.1449,0,0,0,0,0,0,0.0745,0.0773,0.0777,0.0907,0.0942,0.1054,0.1087,0.1107,0.1147,0.1151,0.123,0.1242,0.1296,0.1349,0.1363,0.1368,0.1374,0.149,0.149,0.1491,0.145,0.1447,0.1445,0,0,0,0,0,0.0735,0.0746,0.0776,0.08,0.095,0.1054,0.1075,0.1146,0.1147,0.1161,0.1213,0.1238,0.1359,0.1354,0.137,0.1377,0.149,0.149,0.1491,0.1451,0.1448,0.1445,0,0,0,0,0,0,0.0621,0.0759,0.0794,0.0844,0.0934,0.1066,0.1081,0.113,0.1186,0.1174,0.125,0.1266,0.1303,0.1345,0.1337,0.1413,0.1425,0.1428,0.1389,0.1387,0.1384,0.1359,0.1379,0,0,0,0,0,0.0601,0.0644,0.078,0.0811,0.0851,0.0958,0.1001,0.1056,0.1132,0.1155,0.1212,0.1267,0.1324,0.1355,0.1405,0.1456,0.1452,0.1467,0.1464,0.1462,0.1452,0.1474,0.1472,0.1491,0.1491,0.1491,0,0,0.0562,0.0643,0.0664,0.0789,0.0856,0.0921,0.098,0.1039,0.1087,0.1157,0.1206,0.1254,0.1331,0.1386,0.1406,0.142,0.1444,0.1462,0.146,0.1451,0.1474,0.1472,0.147,0.1491,0.1491,0.1491,0,0,0.0512,0.0577,0.06,0.0676,0.0782,0.0866,0.0874,0.0996,0.1037,0.1107,0.116,0.1212,0.1299,0.1367,0.141,0.1424,0.1422,0.1428,0.1411,0.1433,0.1431,0.143,0.1372,0.1366,0.1438,0.1438,0.1438,0,0.0453,0.0517,0.0617,0.0665,0.0717,0.0832,0.0868,0.0945,0.1062,0.1098,0.1105,0.1239,0.1297,0.1384,0.1388,0.142,0.1396,0.1418,0.1428,0.1427,0.1427,0.1369,0.1363,0.1436,0.1436,0.1436,0.1436,0,0.0443,0.0485,0.0499,0.0605,0.0673,0.072,0.0849,0.0903,0.096,0.1043,0.1118,0.1207,0.1285,0.1316,0.136,0.1395,0.1363,0.1412,0.1431,0.1422,0.1361,0.1355,0.1433,0.1434,0.1434,0.1435,0,0,0.032,0.0465,0.0463,0.0503,0.0644,0.0702,0.0779,0.0896,0.0932,0.1037,0.108,0.12,0.1236,0.1285,0.1347,0.1379,0.1344,0.1383,0.1385,0.1315,0.1317,0.1337,0.1332,0.1389,0.1389,0.1389,0.1257,0,0.0273,0.034,0.0431,0.0481,0.0529,0.0655,0.0717,0.0831,0.0921,0.0987,0.1101,0.1155,0.1232,0.1246,0.1298,0.1334,0.1334,0.1371,0.1345,0.1343,0.1357,0.1331,0.1258,0.1139,0.1251,0.125,0.125,0,0.0222,0.0286,0.0324,0.0438,0.0464,0.0503,0.0617,0.0692,0.0831,0.0889,0.0985,0.1065,0.1142,0.1188,0.1253,0.1264,0.1272,0.1299,0.1296,0.133,0.1356,0.1179,0.1125,0.1241,0.1241,0.1242,0.1243,0,0.0097,0.0201,0.0226,0.0267,0.0415,0.0432,0.0502,0.0641,0.0699,0.0805,0.083,0.0961,0.0982,0.1057,0.1138,0.1175,0.1168,0.1234,0.1253,0.1251,0.1194,0.1189,0.1248,0.1248,0.1249,0.1249,0.1249,0,0.0022,0.0033,0.0157,0.0173,0.0197,0.0319,0.0347,0.0443,0.0545,0.0596,0.0745,0.0778,0.0947,0.0996,0.1075,0.1133,0.1118,0.1226,0.1233,0.1173,0.1168,0.1281,0.1286,0.1244,0.1245,0.1246,0.1247,0,-0.012,-0.0039,-0.0005,0.011,0.0138,0.0144,0.025,0.0287,0.0375,0.0432,0.0452,0.0604,0.0665,0.0814,0.0902,0.1025,0.1094,0.1108,0.0992,0.0992,0.1162,0.1167,0.1114,0.1114,0.1114,0.1114,0.1114,0,-0.0182,-0.0179,-0.008,-0.0064,-0.0027,0.0012,0.0054,0.018,0.0233,0.033,0.0347,0.0413,0.0472,0.0607,0.084,0.0967,0.0998,0.0966,0.1075,0.1143,0.1155,0.116,0.1165,0.0935,0.0934,0.0932,0.0931,0,-0.0293,-0.027,-0.0226,-0.0188,-0.0162,-0.0103,-0.0042,-0.0026,0.0115,0.0133,0.0163,0.0188,0.0368,0.0531,0.0741,0.0816,0.0964,0.095,0.1032,0.1019,0.0976,0.0988,0.0998,0.092,0.0922,0.0922,0.0923,0.0923,-0.0387,-0.0381,-0.0321,-0.0291,-0.0254,-0.0207,-0.0178,-0.0121,-0.0087,-0.0028,-0.0006,0.0085,0.0274,0.0615,0.0701,0.0863,0.0929,0.0953,0.0955,0.0959,0.1001,0.0966,0.0909,0.091,0.0911,0.0911,0.0912,0,-0.046,-0.0429,-0.041,-0.035,-0.0329,-0.0279,-0.0211,-0.0193,-0.0186,-0.0115,-0.0116,0.0082,0.0265,0.0483,0.0762,0.0887,0.0871,0.0834,0.0799,0.0809,0.0818,0.0853,0.072,0.072,0.072,0.072,0,0,-0.0489,-0.0476,-0.0442,-0.0412,-0.0382,-0.0329,-0.0295,-0.0307,-0.0237,-0.023,-0.0088,0.0054,0.0354,0.0498,0.058,0.0674,0.0693,0.0641,0.078,0.0729,0.0736,0.0869,0.0933,0,0,0,0,0]}],[{"header":{"parameterUnit":"m.s-1","parameterCategory":2,"la1":30.2991,"la2":30.254,"lo1":-89.0895,"lo2":-89.0444,"dy":0.0017,"dx":0.0017,"nx":28,"ny":28,"refTime":"2024-07-16T09:00:00:Z","depth":"4","parameterNumber":2,"parameterNumberName":"U-component_of_CURRENTS"},"data":[0,0,0,0,0,0,0,0,0,0,0,0,0,0,0,0,0,0,0,0,0,0,0,0,0,0,0,0,0,0,0,0,0,0,0,0,0,0,0,0,0,0,0,0,0,0,0,0,0,0,0,0,0,0,0,0,0,0,-0.1085,-0.1085,0,-0.1104,-0.1104,-0.1104,-0.1155,-0.1156,-0.1158,-0.1159,-0.1325,-0.1328,-0.1332,0,0,0,0,0,0,0,0,0,0,0,0,0,-0.0975,-0.0978,-0.1085,-0.1085,-0.1086,-0.1104,-0.1104,-0.1104,-0.1155,-0.1156,-0.1158,-0.116,-0.1324,-0.1328,-0.1332,0,0,0,0,0,0,0,0,0,0,0,0,0,-0.1009,-0.0978,-0.1084,-0.1115,-0.1119,-0.1104,-0.1104,-0.1104,-0.1154,-0.1156,-0.1158,-0.116,-0.1323,-0.1328,-0.1332,-0.132,0,0,-0.1347,-0.1349,0,0,0,0,0,0,0,0,-0.1007,-0.1012,-0.111,-0.1113,-0.1117,-0.1132,-0.1126,-0.1184,-0.1154,-0.1137,-0.1159,-0.1161,-0.1275,-0.1283,-0.1276,-0.1328,-0.1335,-0.1347,-0.135,-0.1352,-0.1353,0,0,0,0,0,0,0,-0.1005,-0.1011,-0.1089,-0.1111,-0.1115,-0.1088,-0.1096,-0.1136,-0.1195,-0.1139,-0.1144,-0.115,-0.1277,-0.1271,-0.1281,-0.1337,-0.1347,-0.1351,-0.1354,-0.1356,-0.1513,-0.1514,0,0,0,0,0,0,-0.1013,-0.101,-0.1089,-0.109,-0.1069,-0.1089,-0.1098,-0.1122,-0.1191,-0.1203,-0.1148,-0.1152,-0.1262,-0.1275,-0.1287,-0.1387,-0.1352,-0.1356,-0.1359,-0.1512,-0.1513,-0.1515,0,0,0,0,0,0,-0.1011,-0.102,-0.1088,-0.1051,-0.1059,-0.109,-0.1116,-0.1122,-0.1149,-0.1197,-0.1212,-0.1174,-0.1264,-0.1281,-0.1341,-0.139,-0.1359,-0.1363,-0.151,-0.1512,-0.1514,-0.1517,0,0,0,0,0,0,-0.1008,-0.102,-0.1044,-0.1053,-0.1061,-0.1103,-0.1115,-0.1121,-0.1149,-0.1155,-0.1224,-0.1239,-0.1267,-0.1334,-0.1346,-0.1396,-0.1367,-0.1508,-0.1511,-0.1513,-0.1515,-0.1519,-0.1522,0,0,0,0,0,-0.1004,-0.1007,-0.1045,-0.1055,-0.1093,-0.1104,-0.1106,-0.1131,-0.1149,-0.1162,-0.1203,-0.1239,-0.136,-0.1337,-0.1352,-0.1405,-0.1507,-0.151,-0.1513,-0.1513,-0.1518,-0.1522,0,0,0,0,0,0,-0.0973,-0.1014,-0.1055,-0.1076,-0.1109,-0.1115,-0.1116,-0.1143,-0.118,-0.1203,-0.1241,-0.1259,-0.1336,-0.1362,-0.1337,-0.1458,-0.1446,-0.1451,-0.1441,-0.1446,-0.1449,-0.1456,-0.137,0,0,0,0,0,-0.0981,-0.0997,-0.1043,-0.1064,-0.1078,-0.1107,-0.1116,-0.1153,-0.1181,-0.12,-0.123,-0.1286,-0.135,-0.1391,-0.1437,-0.1493,-0.149,-0.1541,-0.1544,-0.1547,-0.1563,-0.1558,-0.1561,-0.1525,-0.1525,-0.1525,0,0,-0.0972,-0.0999,-0.1009,-0.1059,-0.1077,-0.1107,-0.1117,-0.115,-0.118,-0.1215,-0.1244,-0.1296,-0.1366,-0.1431,-0.147,-0.1466,-0.1557,-0.1551,-0.1552,-0.1567,-0.1561,-0.1564,-0.1567,-0.1527,-0.1526,-0.1526,0,0,-0.0955,-0.0992,-0.1007,-0.1039,-0.1095,-0.1114,-0.1134,-0.1163,-0.1182,-0.1228,-0.127,-0.1323,-0.1407,-0.1448,-0.1491,-0.1536,-0.1571,-0.1591,-0.1621,-0.1615,-0.1618,-0.162,-0.1617,-0.1619,-0.1596,-0.1596,-0.1596,0,-0.0959,-0.0988,-0.1012,-0.1044,-0.1067,-0.1122,-0.1156,-0.1177,-0.1223,-0.1236,-0.1249,-0.1363,-0.1404,-0.1499,-0.1533,-0.1542,-0.1564,-0.1597,-0.1617,-0.1619,-0.1621,-0.1618,-0.162,-0.1597,-0.1597,-0.1597,-0.1597,0,-0.0964,-0.0998,-0.0999,-0.1066,-0.1094,-0.1126,-0.1176,-0.1198,-0.1229,-0.1259,-0.1337,-0.1383,-0.1451,-0.1491,-0.154,-0.161,-0.1628,-0.1613,-0.1599,-0.1624,-0.162,-0.1622,-0.1598,-0.1597,-0.1597,-0.1597,0,0,-0.0946,-0.0998,-0.1006,-0.1038,-0.1115,-0.1135,-0.1176,-0.1223,-0.1245,-0.1307,-0.1332,-0.1447,-0.1481,-0.1532,-0.1593,-0.162,-0.1643,-0.1654,-0.1654,-0.1639,-0.1663,-0.1538,-0.1528,-0.1653,-0.1654,-0.1654,-0.1651,0,-0.0955,-0.1,-0.1031,-0.108,-0.1101,-0.1156,-0.1182,-0.1242,-0.127,-0.1296,-0.1376,-0.1438,-0.1497,-0.1552,-0.1586,-0.1642,-0.1653,-0.1647,-0.1653,-0.1653,-0.1527,-0.1527,-0.1656,-0.1652,-0.1653,-0.1653,-0.1653,0,-0.0956,-0.0983,-0.1029,-0.1078,-0.1095,-0.1137,-0.1181,-0.1222,-0.1281,-0.1313,-0.1389,-0.1441,-0.1537,-0.1549,-0.1638,-0.1652,-0.1666,-0.1688,-0.1687,-0.1574,-0.1531,-0.1625,-0.1656,-0.1656,-0.1656,-0.1656,-0.1656,0,-0.0913,-0.0975,-0.1005,-0.1031,-0.1103,-0.1127,-0.1171,-0.1226,-0.1252,-0.133,-0.136,-0.146,-0.1519,-0.1566,-0.1627,-0.1649,-0.1689,-0.1686,-0.1577,-0.1568,-0.1681,-0.1679,-0.17,-0.17,-0.17,-0.17,-0.17,0,-0.0892,-0.0916,-0.0989,-0.1009,-0.1034,-0.111,-0.1138,-0.1186,-0.1259,-0.1283,-0.1381,-0.1402,-0.1535,-0.157,-0.1615,-0.1603,-0.1659,-0.1582,-0.1554,-0.1683,-0.1681,-0.1682,-0.168,-0.17,-0.17,-0.17,-0.17,0,-0.0833,-0.0887,-0.0921,-0.0998,-0.1012,-0.104,-0.1113,-0.1129,-0.1225,-0.1254,-0.1292,-0.1387,-0.1433,-0.1518,-0.1577,-0.156,-0.1563,-0.1531,-0.1669,-0.1649,-0.1454,-0.1453,-0.1408,-0.1404,-0.14,-0.1397,-0.1394,0,-0.0808,-0.0821,-0.089,-0.09,-0.0933,-0.0977,-0.0991,-0.1095,-0.1105,-0.121,-0.1205,-0.1288,-0.1334,-0.1316,-0.1419,-0.1459,-0.1453,-0.1446,-0.1459,-0.1445,-0.1423,-0.1427,-0.1431,-0.1388,-0.1387,-0.1386,-0.1385,0,-0.0755,-0.079,-0.0814,-0.0823,-0.0844,-0.0853,-0.0885,-0.089,-0.0998,-0.109,-0.1082,-0.1117,-0.1152,-0.1212,-0.1259,-0.1286,-0.1452,-0.1406,-0.1414,-0.1427,-0.1419,-0.1402,-0.141,-0.1372,-0.1373,-0.1375,-0.1375,0,-0.0715,-0.0709,-0.0742,-0.0741,-0.0743,-0.0721,-0.076,-0.0768,-0.0805,-0.0928,-0.0902,-0.1002,-0.1093,-0.1117,-0.1147,-0.1179,-0.1179,-0.1161,-0.1182,-0.1198,-0.1139,-0.11,-0.0924,0,0,0,0,0,-0.0676,-0.0657,-0.0651,-0.0636,-0.0625,-0.0629,-0.0672,-0.0723,-0.081,-0.0765,-0.0841,-0.0859,-0.0919,-0.0964,-0.0964,-0.1085,-0.1202,-0.1081,-0.1194,-0.1298,-0.1313,-0.1268,0,0,0,0,0,0,-0.0646,-0.0643,-0.0629,-0.0539,-0.0498,-0.0479,-0.0508,-0.0581,-0.0558,-0.066,-0.0688,-0.0778,-0.0847,-0.0894,-0.093,-0.0954,-0.1004,-0.115,-0.1148,-0.1289,-0.1303,-0.1315,-0.1275,0,0,0,0,0]},{"header":{"parameterUnit":"m.s-1","parameterCategory":2,"la1":30.2991,"la2":30.254,"lo1":-89.0895,"lo2":-89.0444,"dy":0.0017,"dx":0.0017,"nx":28,"ny":28,"refTime":"2024-07-16T09:00:00:Z","depth":"4","parameterNumber":3,"parameterNumberName":"V-component_of_CURRENTS"},"data":[0,0,0,0,0,0,0,0,0,0,0,0,0,0,0,0,0,0,0,0,0,0,0,0,0,0,0,0,0,0,0,0,0,0,0,0,0,0,0,0,0,0,0,0,0,0,0,0,0,0,0,0,0,0,0,0,0,0,-0.0317,-0.0317,0,-0.0345,-0.0346,-0.0347,-0.0335,-0.0333,-0.0332,-0.0331,-0.0267,-0.0267,-0.0266,0,0,0,0,0,0,0,0,0,0,0,0,0,-0.0324,-0.0324,-0.0317,-0.0317,-0.0317,-0.0345,-0.0346,-0.0347,-0.0335,-0.0333,-0.0332,-0.0331,-0.0267,-0.0267,-0.0266,0,0,0,0,0,0,0,0,0,0,0,0,0,-0.0338,-0.0324,-0.0317,-0.0311,-0.031,-0.0345,-0.0346,-0.0347,-0.0335,-0.0333,-0.0332,-0.033,-0.0268,-0.0267,-0.0266,-0.0293,0,0,-0.0263,-0.0262,0,0,0,0,0,0,0,0,-0.0337,-0.0338,-0.0312,-0.0311,-0.031,-0.0331,-0.0325,-0.0323,-0.0336,-0.033,-0.0331,-0.0329,-0.0278,-0.0276,-0.0293,-0.029,-0.0287,-0.0263,-0.0262,-0.0262,-0.0261,0,0,0,0,0,0,0,-0.0336,-0.0337,-0.0333,-0.0311,-0.0311,-0.0331,-0.0331,-0.0326,-0.0315,-0.0331,-0.0329,-0.0325,-0.0277,-0.0294,-0.0291,-0.0286,-0.0263,-0.0262,-0.0261,-0.0261,-0.0272,-0.0273,0,0,0,0,0,0,-0.0321,-0.0336,-0.0332,-0.0333,-0.0315,-0.0332,-0.0332,-0.033,-0.0317,-0.0313,-0.0327,-0.0324,-0.0297,-0.0292,-0.0289,-0.0309,-0.0262,-0.0261,-0.026,-0.0271,-0.0272,-0.0273,0,0,0,0,0,0,-0.0321,-0.0321,-0.033,-0.0332,-0.0333,-0.0332,-0.0331,-0.0331,-0.0352,-0.0314,-0.0309,-0.0346,-0.0295,-0.029,-0.028,-0.0306,-0.026,-0.0259,-0.027,-0.0272,-0.0273,-0.0356,0,0,0,0,0,0,-0.0322,-0.0321,-0.0331,-0.0331,-0.0333,-0.0347,-0.0332,-0.0333,-0.0349,-0.0347,-0.0329,-0.0322,-0.0294,-0.0282,-0.0279,-0.0304,-0.0259,-0.0269,-0.0271,-0.0272,-0.0352,-0.036,-0.0367,0,0,0,0,0,-0.0322,-0.0336,-0.0332,-0.0332,-0.0341,-0.0347,-0.0352,-0.0348,-0.0352,-0.0363,-0.0347,-0.0322,-0.029,-0.0282,-0.0278,-0.0304,-0.0268,-0.027,-0.0272,-0.0349,-0.0358,-0.0367,0,0,0,0,0,0,-0.0344,-0.0335,-0.0331,-0.0341,-0.0342,-0.0343,-0.0357,-0.0362,-0.0367,-0.0363,-0.0335,-0.0327,-0.033,-0.0305,-0.0297,-0.0311,-0.0275,-0.0277,-0.0335,-0.0344,-0.0351,-0.0343,-0.0258,0,0,0,0,0,-0.0354,-0.0359,-0.0352,-0.036,-0.0363,-0.0368,-0.0377,-0.0374,-0.0369,-0.0372,-0.0358,-0.0343,-0.0339,-0.033,-0.0317,-0.0328,-0.0259,-0.034,-0.0348,-0.0354,-0.0345,-0.0275,-0.0275,-0.028,-0.028,-0.028,0,0,-0.0366,-0.0359,-0.0364,-0.0366,-0.0369,-0.0388,-0.0371,-0.0382,-0.0405,-0.0362,-0.0388,-0.037,-0.0348,-0.0356,-0.0355,-0.0336,-0.0313,-0.0357,-0.0363,-0.035,-0.0277,-0.0276,-0.0275,-0.0281,-0.0281,-0.0281,0,0,-0.0383,-0.0385,-0.0395,-0.0404,-0.0405,-0.0408,-0.0415,-0.0421,-0.043,-0.0448,-0.0427,-0.0423,-0.0417,-0.0407,-0.0403,-0.0445,-0.0357,-0.044,-0.0469,-0.0403,-0.0401,-0.0399,-0.0291,-0.0279,-0.0441,-0.0441,-0.0441,0,-0.0394,-0.0409,-0.0401,-0.0418,-0.0433,-0.0422,-0.0448,-0.0463,-0.0466,-0.0475,-0.0458,-0.0458,-0.0446,-0.0458,-0.0469,-0.0464,-0.0383,-0.0441,-0.0411,-0.0407,-0.0403,-0.0294,-0.0279,-0.0445,-0.0445,-0.0444,-0.0444,0,-0.0421,-0.0442,-0.0451,-0.0468,-0.0487,-0.0503,-0.0515,-0.0531,-0.054,-0.0547,-0.0558,-0.0535,-0.0529,-0.0533,-0.0515,-0.0498,-0.0433,-0.043,-0.0387,-0.0408,-0.0291,-0.0274,-0.0451,-0.045,-0.0449,-0.0448,0,0,-0.0416,-0.0459,-0.0463,-0.0492,-0.0516,-0.0534,-0.0571,-0.0597,-0.0628,-0.0618,-0.0638,-0.0642,-0.0616,-0.0608,-0.0584,-0.0528,-0.0441,-0.0464,-0.0459,-0.0354,-0.0239,-0.025,-0.0232,-0.0419,-0.0417,-0.0416,-0.016,0,-0.0436,-0.0478,-0.0499,-0.0559,-0.0588,-0.0604,-0.0643,-0.0667,-0.0684,-0.0696,-0.0669,-0.0677,-0.0651,-0.0643,-0.0588,-0.0474,-0.0402,-0.0507,-0.0237,-0.0228,-0.0234,-0.0216,-0.041,-0.0147,-0.0143,-0.014,-0.0138,0,-0.0458,-0.0484,-0.054,-0.061,-0.0625,-0.0664,-0.0722,-0.0754,-0.0769,-0.0775,-0.0764,-0.0735,-0.0668,-0.0645,-0.0443,-0.0498,-0.0375,-0.028,-0.0268,-0.0238,-0.021,-0.0125,-0.0106,-0.0109,-0.0111,-0.0113,-0.0115,0,-0.0458,-0.0521,-0.0568,-0.0593,-0.0661,-0.0699,-0.0734,-0.0776,-0.0804,-0.0815,-0.0809,-0.0743,-0.0683,-0.0533,-0.0356,-0.0378,-0.0102,-0.0115,-0.0003,0.0,-0.0027,-0.0032,0.0031,0.003,0.003,0.0029,0.0028,0,-0.0474,-0.0519,-0.0578,-0.0608,-0.0674,-0.072,-0.0788,-0.0818,-0.0843,-0.0861,-0.084,-0.0808,-0.0647,-0.0488,-0.0331,-0.0099,-0.0076,0.0013,0.0059,-0.0066,-0.0078,-0.0012,-0.0021,0.0039,0.0037,0.0035,0.0033,0,-0.0479,-0.0512,-0.0576,-0.065,-0.068,-0.0729,-0.0811,-0.085,-0.0872,-0.0882,-0.0873,-0.0802,-0.0599,-0.042,-0.0155,-0.0063,0.0146,0.0216,0.0112,0.0146,0.0209,0.0193,0.0381,0.0383,0.0384,0.0385,0.0386,0,-0.0489,-0.0517,-0.0599,-0.0637,-0.0679,-0.0754,-0.0799,-0.0854,-0.088,-0.0871,-0.0849,-0.0701,-0.0626,-0.0231,-0.0073,0.0237,0.0247,0.0357,0.0236,0.0215,0.0243,0.0224,0.0207,0.0388,0.0389,0.0389,0.0389,0,-0.0507,-0.053,-0.0577,-0.0641,-0.0702,-0.077,-0.0829,-0.084,-0.0879,-0.0894,-0.0799,-0.0663,-0.044,-0.0209,0.0026,0.023,0.028,0.0371,0.0369,0.0256,0.0226,0.0248,0.0229,0.0394,0.0393,0.0393,0.0393,0,-0.0515,-0.0544,-0.059,-0.0648,-0.0717,-0.0763,-0.0802,-0.0806,-0.0822,-0.0804,-0.0761,-0.0582,-0.0483,-0.0208,0.0011,0.0204,0.0228,0.0253,0.0257,0.0254,0.0099,0.0036,0.0204,0,0,0,0,0,-0.0518,-0.0543,-0.0596,-0.0657,-0.0718,-0.0755,-0.081,-0.0836,-0.0854,-0.0777,-0.0773,-0.0576,-0.0306,-0.0196,0.0007,0.0025,0.0256,0.0261,0.0287,0.042,0.0415,0.0248,0,0,0,0,0,0,-0.0521,-0.0564,-0.0585,-0.0643,-0.0683,-0.0749,-0.0781,-0.0797,-0.0747,-0.0743,-0.0577,-0.0548,-0.0254,-0.0398,0.001,0.006,0.0095,0.0382,0.0385,0.0423,0.0418,0.0414,0.0241,0,0,0,0,0]}]]